Location: Adrasan
(36.3319°N, 30.4314°E)
Time: 06:32:22
(UTC+00:00)

Cosmos 1452 Rocket - Pass Details

Date: 09 December 2023
Orbit: 765 x 773 km, 74.1° (Epoch: 29 February)

Event Time Altitude Azimuth Distance (km) Brightness Sun altitude
Rises 16:51:32 0° 208° (SSW) 3,224 7.3 -25.2°
Reaches altitude 10° 16:53:57 10° 213° (SSW) 2,300 6.5 -25.6°
Maximum altitude 16:59:03 54° 290° (WNW) 929 4.1 -26.6°
Enters shadow 17:01:11 33° 350° (N) 1,279 4.6 -27.1°
